2024-173K

Last updated on Fri Oct 25 2024 00:02:04 GMT+0000 (Coordinated Universal Time)

1 61236U 24173K 24298.54733242 .00058902 00000+0 20750-2 0 9999 2 61236 97.4383 11.2939 0020571 191.8031 168.2729 15.28881309 4652
UTC large
Height (km)
Speed (km/s)
/
Latitude / Longitude
Inclination (degrees)
Orbital Period (minutes)
Azimuth
Elevation
Range (km)
Doppler Factor

Next 0 passes for location: London (51.5072 / 0.1276)

Sorry there are no passes over London.